Simultaneous Nadir Overpasses (SNOs) Predictions

Prediction of SNOs between GOES-16 and LANDSAT-8 Satellite Orbit:

Table of predicted SNOs for the next 14.0 days since TLE Epoch: 11/7/2020
Index Date Time (GOES-16) GOES-16 Lat,Lon LANDSAT-8 Lat,Lon Distance(km) Time Diff (sec)
1 11/08/2020 02:57:44 0.03, -75.17 0.79, -71.71 393.99 80
2 11/08/2020 15:18:59 -0.03, -75.21 0.33, -76.86 188.13 80
3 11/10/2020 15:09:27 -0.02, -75.22 -0.29, -73.90 149.97 80
4 11/11/2020 03:30:51 0.02, -75.19 -0.82, -79.09 443.48 80
5 11/12/2020 14:57:15 -0.02, -75.24 -0.91, -70.94 488.57 80
6 11/13/2020 03:18:39 0.02, -75.21 -0.20, -76.13 104.80 80
7 11/15/2020 03:03:47 0.02, -75.23 0.43, -73.17 234.33 80
8 11/15/2020 15:25:02 -0.02, -75.27 0.62, -78.33 347.55 80
9 11/17/2020 15:12:50 -0.01, -75.30 -0.01, -75.37 8.13 80
10 11/19/2020 15:03:19 -0.00, -75.33 -0.64, -72.41 332.17 80
11 11/20/2020 03:24:42 0.00, -75.31 -0.46, -77.60 260.58 80
